Weather History for Volkel, Netherlands

Change the Weather History Date:

Sunday, April 6, 2014

  Actual Average Record
Temperature  
Mean Temperature 54 °F -  
Max Temperature 66 °F 58 °F 71 °F (2011)
Min Temperature 43 °F 40 °F 28 °F (2006)
Degree Days  
Heating Degree Days 10    
Growing Degree Days 4 (Base 50)    
Moisture  
Dew Point 49 °F    
Average Humidity 77    
Maximum Humidity 100    
Minimum Humidity 54    
Precipitation  
Precipitation 0.01 in - - ()
Sea Level Pressure  
Sea Level Pressure 30.01 in    
Wind  
Wind Speed 6 mph ()    
Max Wind Speed 16 mph    
Max Gust Speed -    
Visibility 6.7 miles    
Events Rain    
Averages and records for this station are not official NWS values.
T = Trace of Precipitation, MM = Missing Value Source: Averaged Metar Reports

Daily Weather History Graph

Daily Weather History Graph

Search for Another Location

Airport:

Trip Planner

Search our weather history database for the weather conditions in past years. The results will help you decide how hot, cold, wet, or windy it might be!

Date:

Astronomy

Apr. 06, 2014 Rise Set
Actual Time 7:01 AM CEST 8:18 PM CEST
Civil Twilight 6:27 AM CEST 8:53 PM CEST
Nautical Twilight 5:45 AM CEST 9:35 PM CEST
Astronomical Twilight 4:59 AM CEST 10:21 PM CEST
Moon 11:24 AM CEST (4/6) 2:26 AM CEST (4/6)
Length of Visible Light 14h 26m
Length of Day
13h 17m
Waxing Crescent, 41% of the Moon is Illuminated
Apr 6
Waxing Crescent
Apr 7
First Quarter
Apr 15
Full
Apr 22
Last Quarter
Apr 29
New

Hourly Weather History & Observations

Time (CEST) Temp. Windchill Dew Point Humidity Pressure Visibility Wind Dir Wind Speed Gust Speed Precip Events Conditions
12:00 AM 46 °F - 43 °F 85% 30.04 in 3 mi SSE 2.2 mph - -   Mist
12:25 AM 44.6 °F - 44.6 °F 100% 30.04 in 3.7 mi South 1.2 mph - N/A   Mist
12:55 AM 44.6 °F - 42.8 °F 93% 30.04 in 3.7 mi South 2.3 mph - N/A   Mist
1:00 AM 45 °F - 43 °F 91% 30.04 in 4 mi South 2.2 mph - -   Mist
1:16 AM 44.6 °F - 42.8 °F 93% 30.04 in 5.0 mi South 2.3 mph - N/A   Overcast
1:25 AM 46.4 °F - 42.8 °F 87% 30.04 in 5.0 mi South 2.3 mph - N/A   Partly Cloudy
1:38 AM 44.6 °F - 42.8 °F 93% 30.04 in 5.6 mi SSE 2.3 mph - N/A   Mist
1:55 AM 46.4 °F - 42.8 °F 87% 30.01 in 6.2 mi South 2.3 mph - N/A   Unknown
2:00 AM 47 °F - 43 °F 82% 30.04 in 6 mi South 2.2 mph - -   Partly Cloudy
2:25 AM 46.4 °F - 42.8 °F 87% 30.01 in 5.6 mi SW 2.3 mph - N/A   Mist
2:55 AM 46.4 °F 45.2 °F 42.8 °F 87% 30.01 in 6.2 mi SSW 3.5 mph - N/A   Unknown
3:00 AM 46 °F - 42 °F 80% 30.03 in 6 mi SSW 4.5 mph - -  
3:25 AM 44.6 °F 42.2 °F 41.0 °F 87% 30.01 in 6.2 mi SSW 4.6 mph - N/A   Unknown
3:55 AM 44.6 °F 42.2 °F 41.0 °F 87% 30.01 in 5.6 mi SSW 4.6 mph - N/A   Mist
4:00 AM 44 °F - 42 °F 88% 30.03 in 6 mi SSW 4.5 mph - -  
4:25 AM 44.6 °F 42.2 °F 41.0 °F 87% 30.01 in 6.2 mi SSW 4.6 mph - N/A   Unknown
4:55 AM 46.4 °F 44.3 °F 41.0 °F 81% 30.01 in 6.2 mi South 4.6 mph - N/A   Unknown
5:00 AM 46 °F - 42 °F 79% 30.01 in 7 mi South 4.5 mph - -  
5:25 AM 44.6 °F 42.2 °F 41.0 °F 87% 30.01 in 6.2 mi SSW 4.6 mph - N/A   Unknown
5:55 AM 44.6 °F 42.2 °F 41.0 °F 87% 30.01 in 6.2 mi SSW 4.6 mph - N/A   Unknown
6:00 AM 45 °F - 41 °F 80% 30.02 in 8 mi SSW 4.5 mph - -   Scattered Clouds
6:25 AM 44.6 °F 43.1 °F 41.0 °F 87% 30.01 in 6.2 mi South 3.5 mph - N/A   Overcast
6:55 AM 44.6 °F 43.1 °F 41.0 °F 87% 30.01 in 6.2 mi SSW 3.5 mph - N/A   Mostly Cloudy
7:00 AM 45 °F - 41 °F 81% 30.02 in 9 mi SSW 4.5 mph - -   Mostly Cloudy
7:25 AM 44.6 °F 42.2 °F 41.0 °F 87% 30.01 in 6.2 mi SSW 4.6 mph - N/A   Mostly Cloudy
7:55 AM 48.2 °F - 42.8 °F 82% 30.01 in 6.2 mi South 5.8 mph - N/A   Mostly Cloudy
8:00 AM 49 °F - 43 °F 74% 30.03 in 9 mi South 4.5 mph - -   Partly Cloudy
8:25 AM 50.0 °F - 44.6 °F 82% 30.01 in 6.2 mi SSW 6.9 mph - N/A   Overcast
8:55 AM 51.8 °F - 44.6 °F 76% 30.01 in 6.2 mi SSW 8.1 mph - N/A   Overcast
9:00 AM 52 °F - 46 °F 73% 30.03 in 14 mi SSW 8.9 mph - -   Overcast
9:25 AM 53.6 °F - 46.4 °F 77% 30.01 in 6.2 mi SSW 9.2 mph - N/A   Overcast
9:55 AM 55.4 °F - 48.2 °F 77% 30.01 in 6.2 mi SSW 8.1 mph - N/A   Overcast
10:00 AM 56 °F - 49 °F 70% 30.02 in 16 mi South 8.9 mph - -   Overcast
10:25 AM 55.4 °F - 48.2 °F 77% 30.01 in 6.2 mi SSW 9.2 mph - N/A   Overcast
10:55 AM 55.4 °F - 50.0 °F 82% 30.01 in 6.2 mi SSW 6.9 mph - N/A Rain Drizzle
11:00 AM 56 °F - 51 °F 78% 30.03 in 11 mi SW 6.7 mph - - Rain Light Rain
11:25 AM 57.2 °F - 51.8 °F 82% 30.01 in 6.2 mi SSW 8.1 mph - N/A   Drizzle
11:55 AM 57.2 °F - 51.8 °F 82% 30.04 in 6.2 mi SSW 6.9 mph - N/A   Drizzle
11:59 AM 57.2 °F - 51.8 °F 82% 30.04 in 6.2 mi SSW 6.9 mph - N/A   Drizzle
12:00 PM 57 °F - 52 °F 78% 30.04 in 11 mi SSW 6.7 mph - - Rain Light Drizzle
12:25 PM 59.0 °F - 53.6 °F 82% 30.04 in 6.2 mi SSW 6.9 mph - N/A Rain Light Rain
12:55 PM 59.0 °F - 53.6 °F 82% 30.01 in 6.2 mi SSW 8.1 mph - N/A   Overcast
1:00 PM 60 °F - 54 °F 76% 30.03 in 16 mi South 6.7 mph - - Rain Rain
1:25 PM 60.8 °F - 53.6 °F 77% 30.01 in 6.2 mi SSW 10.4 mph - N/A   Overcast
1:35 PM 60.8 °F - 53.6 °F 77% 30.01 in 6.2 mi SSW 11.5 mph - N/A   Mostly Cloudy
1:47 PM 62.6 °F - 53.6 °F 72% 30.01 in 6.2 mi South 11.5 mph - N/A   Mostly Cloudy
1:55 PM 62.6 °F - 53.6 °F 72% 30.01 in 6.2 mi SSW 12.7 mph - N/A   Mostly Cloudy
2:00 PM 63 °F - 54 °F 64% 30.02 in 19 mi SSW 13.4 mph - -   Partly Cloudy
2:05 PM 62.6 °F - 53.6 °F 72% 30.01 in 6.2 mi SSW 13.8 mph - N/A   Overcast
2:09 PM 62.6 °F - 53.6 °F 72% 30.01 in 6.2 mi SSW 12.7 mph - N/A   Overcast
2:15 PM 62.6 °F - 53.6 °F 72% 30.01 in 6.2 mi SSW 13.8 mph - N/A   Mostly Cloudy
2:25 PM 62.6 °F - 51.8 °F 68% 30.01 in 6.2 mi SSW 12.7 mph - N/A   Mostly Cloudy
2:55 PM 62.6 °F - 51.8 °F 68% 30.01 in 6.2 mi SW 11.5 mph - N/A   Overcast
3:00 PM 64 °F - 53 °F 57% 30.01 in 22 mi SSW 13.4 mph - -   Overcast
3:25 PM 66.2 °F - 53.6 °F 64% 30.01 in 6.2 mi SSW 13.8 mph - N/A   Overcast
3:55 PM 64.4 °F - 51.8 °F 64% 29.98 in 6.2 mi SSW 13.8 mph - N/A   Overcast
4:00 PM 65 °F - 52 °F 54% 30.00 in 22 mi SSW 15.7 mph - -   Overcast
4:25 PM 64.4 °F - 51.8 °F 64% 29.98 in 6.2 mi SSW 13.8 mph - N/A   Overcast
4:55 PM 64.4 °F - 51.8 °F 64% 29.98 in 6.2 mi SSW 11.5 mph - N/A   Overcast
5:00 PM 65 °F - 52 °F 54% 30.00 in 22 mi SSW 11.2 mph - -   Overcast
5:25 PM 64.4 °F - 51.8 °F 64% 29.98 in 6.2 mi SW 12.7 mph - N/A   Overcast
5:55 PM 64.4 °F - 51.8 °F 64% 29.98 in 6.2 mi SW 15.0 mph - N/A   Overcast
6:00 PM 64 °F - 52 °F 56% 30.00 in 25 mi SW 15.7 mph - -   Overcast
6:25 PM 64.4 °F - 53.6 °F 68% 29.98 in 6.2 mi SW 15.0 mph - N/A   Overcast
6:55 PM 62.6 °F - 53.6 °F 72% 29.98 in 6.2 mi SW 11.5 mph - N/A   Overcast
7:00 PM 63 °F - 53 °F 61% 30.00 in 28 mi SW 11.2 mph - -   Overcast
7:25 PM 62.6 °F - 53.6 °F 72% 29.98 in 6.2 mi SW 10.4 mph - N/A   Overcast
7:55 PM 62.6 °F - 53.6 °F 72% 30.01 in 6.2 mi SW 10.4 mph - N/A   Overcast
8:00 PM 63 °F - 53 °F 62% 30.01 in 25 mi SW 11.2 mph - -   Partly Cloudy
8:25 PM 62.6 °F - 53.6 °F 72% 30.01 in 6.2 mi SW 11.5 mph - N/A   Overcast
8:55 PM 60.8 °F - 53.6 °F 77% 30.01 in 6.2 mi SSW 9.2 mph - N/A   Mostly Cloudy
9:00 PM 60 °F - 53 °F 70% 30.02 in 22 mi SSW 8.9 mph - -   Scattered Clouds
9:25 PM 60.8 °F - 53.6 °F 77% 30.01 in 6.2 mi WSW 6.9 mph - N/A   Overcast
9:55 PM 60.8 °F - 53.6 °F 77% 30.01 in 6.2 mi SW 6.9 mph - N/A   Overcast
10:00 PM 61 °F - 54 °F 70% 30.03 in 25 mi SW 11.2 mph - -   Overcast
10:25 PM 60.8 °F - 53.6 °F 77% 30.01 in 6.2 mi SW 9.2 mph - N/A   Overcast
10:30 PM 60.8 °F - 53.6 °F 77% 30.01 in 6.2 mi SW 8.1 mph - N/A   Overcast
10:55 PM 60.8 °F - 53.6 °F 77% 30.01 in 6.2 mi SW 8.1 mph - N/A   Overcast
11:00 PM 60 °F - 54 °F 76% 30.03 in 22 mi SW 8.9 mph - -   Overcast
11:08 PM 60.8 °F - 55.4 °F 82% 30.01 in 3.7 mi SW 10.4 mph - N/A Rain Light Rain
11:12 PM 59.0 °F - 55.4 °F 88% 30.01 in 5.6 mi SW 11.5 mph - N/A   Drizzle
11:25 PM 59.0 °F - 55.4 °F 88% 30.01 in 6.2 mi SSW 10.4 mph - N/A   Overcast
11:55 PM 59.0 °F - 55.4 °F 88% 30.01 in 6.2 mi SSW 6.9 mph - N/A   Overcast